owner,sensor,date,latitude,longitude,vertical_datum,wind_speed,wind_to_direction,wind_speed_of_gust,qcFlag 
LUMCON,ioos:station:LUMCON:101:1,2019-03-01T00:30:00Z,29.2533,-90.6633,1.0,0.7,21.0,0.8,'1111122,1111122,1111122' 
LUMCON,ioos:station:LUMCON:101:1,2019-03-01T00:45:00Z,29.2533,-90.6633,1.0,1.6,63.0,1.9,'1111122,1111122,1111122' 
LUMCON,ioos:station:LUMCON:101:1,2019-03-01T01:00:00Z,29.2533,-90.6633,1.0,3.0,75.0,3.2,'1111122,1111122,1111122' 
LUMCON,ioos:station:LUMCON:101:1,2019-03-01T01:15:00Z,29.2533,-90.6633,1.0,1.9,64.0,2.1,'1111122,1111122,1111122' 
LUMCON,ioos:station:LUMCON:101:1,2019-03-01T01:30:00Z,29.2533,-90.6633,1.0,2.3,80.0,2.5,'1111122,1111122,1111122' 
LUMCON,ioos:station:LUMCON:101:1,2019-03-01T01:45:00Z,29.2533,-90.6633,1.0,2.2,65.0,2.3,'1111122,1111122,1111122' 
LUMCON,ioos:station:LUMCON:101:1,2019-03-01T02:00:00Z,29.2533,-90.6633,1.0,2.3,72.0,2.5,'1111122,1111122,1111122' 
LUMCON,ioos:station:LUMCON:101:1,2019-03-01T02:15:00Z,29.2533,-90.6633,1.0,1.7,49.0,1.9,'1111122,1111122,1111122' 
LUMCON,ioos:station:LUMCON:101:1,2019-03-01T02:30:00Z,29.2533,-90.6633,1.0,3.0,74.0,3.1,'1111122,1111122,1111122' 
LUMCON,ioos:station:LUMCON:101:1,2019-03-01T02:45:00Z,29.2533,-90.6633,1.0,1.3,99.0,1.5,'1111122,1111122,1111122' 
LUMCON,ioos:station:LUMCON:101:1,2019-03-01T03:00:00Z,29.2533,-90.6633,1.0,1.5,283.0,1.5,'1111122,1111122,1111122' 
LUMCON,ioos:station:LUMCON:101:1,2019-03-01T03:15:00Z,29.2533,-90.6633,1.0,1.7,29.0,1.9,'1111122,1111122,1111122' 
LUMCON,ioos:station:LUMCON:101:1,2019-03-01T03:30:00Z,29.2533,-90.6633,1.0,1.8,29.0,1.9,'1111122,1111122,1111122' 
LUMCON,ioos:station:LUMCON:101:1,2019-03-01T03:45:00Z,29.2533,-90.6633,1.0,1.6,24.0,1.9,'1111122,1111122,1111122' 
LUMCON,ioos:station:LUMCON:101:1,2019-03-01T04:00:00Z,29.2533,-90.6633,1.0,2.5,61.0,2.7,'1111122,1111122,1111122' 
LUMCON,ioos:station:LUMCON:101:1,2019-03-01T04:15:00Z,29.2533,-90.6633,1.0,2.1,80.0,2.2,'1111122,1111122,1111122' 
LUMCON,ioos:station:LUMCON:101:1,2019-03-01T04:30:00Z,29.2533,-90.6633,1.0,2.3,79.0,2.4,'1111122,1111122,1111122' 
LUMCON,ioos:station:LUMCON:101:1,2019-03-01T04:45:00Z,29.2533,-90.6633,1.0,0.7,55.0,0.8,'1111122,1111122,1111122' 
LUMCON,ioos:station:LUMCON:101:1,2019-03-01T05:00:00Z,29.2533,-90.6633,1.0,3.0,54.0,3.1,'1111122,1111122,1111122' 
LUMCON,ioos:station:LUMCON:101:1,2019-03-01T05:15:00Z,29.2533,-90.6633,1.0,2.9,113.0,3.1,'1111122,1111122,1111122' 
LUMCON,ioos:station:LUMCON:101:1,2019-03-01T05:30:00Z,29.2533,-90.6633,1.0,0.7,358.0,0.8,'1111122,1111122,1111122' 
LUMCON,ioos:station:LUMCON:101:1,2019-03-01T05:45:00Z,29.2533,-90.6633,1.0,1.6,67.0,1.7,'1111122,1111122,1111122' 
LUMCON,ioos:station:LUMCON:101:1,2019-03-01T06:00:00Z,29.2533,-90.6633,1.0,2.9,51.0,3.1,'1111122,1111122,1111122' 
LUMCON,ioos:station:LUMCON:101:1,2019-03-01T06:15:00Z,29.2533,-90.6633,1.0,2.3,98.0,2.4,'1111122,1111122,1111122' 
LUMCON,ioos:station:LUMCON:101:1,2019-03-01T06:30:00Z,29.2533,-90.6633,1.0,0.9,16.0,0.9,'1111122,1111122,1111122' 
LUMCON,ioos:station:LUMCON:101:1,2019-03-01T06:45:00Z,29.2533,-90.6633,1.0,1.6,332.0,1.7,'1111122,1111122,1111122' 
LUMCON,ioos:station:LUMCON:101:1,2019-03-01T07:00:00Z,29.2533,-90.6633,1.0,1.2,66.0,1.3,'1111122,1111122,1111122' 
LUMCON,ioos:station:LUMCON:101:1,2019-03-01T07:15:00Z,29.2533,-90.6633,1.0,0.4,146.0,0.5,'1111122,1111122,1111122' 
LUMCON,ioos:station:LUMCON:101:1,2019-03-01T07:30:00Z,29.2533,-90.6633,1.0,2.1,90.0,2.2,'1111122,1111122,1111122' 
LUMCON,ioos:station:LUMCON:101:1,2019-03-01T07:45:00Z,29.2533,-90.6633,1.0,1.3,81.0,1.5,'1111122,1111122,1111122' 
LUMCON,ioos:station:LUMCON:101:1,2019-03-01T08:00:00Z,29.2533,-90.6633,1.0,0.6,65.0,0.7,'1111122,1111122,1111122' 
LUMCON,ioos:station:LUMCON:101:1,2019-03-01T08:15:00Z,29.2533,-90.6633,1.0,1.7,48.0,1.8,'1111122,1111122,1111122' 
LUMCON,ioos:station:LUMCON:101:1,2019-03-01T08:30:00Z,29.2533,-90.6633,1.0,1.2,51.0,1.3,'1111122,1111122,1111122' 
LUMCON,ioos:station:LUMCON:101:1,2019-03-01T08:45:00Z,29.2533,-90.6633,1.0,1.8,60.0,1.9,'1111122,1111122,1111122' 
LUMCON,ioos:station:LUMCON:101:1,2019-03-01T09:00:00Z,29.2533,-90.6633,1.0,2.2,81.0,2.4,'1111122,1111122,1111122' 
LUMCON,ioos:station:LUMCON:101:1,2019-03-01T09:15:00Z,29.2533,-90.6633,1.0,2.0,4.0,2.2,'1111122,1111122,1111122' 
LUMCON,ioos:station:LUMCON:101:1,2019-03-01T09:30:00Z,29.2533,-90.6633,1.0,1.4,28.0,1.5,'1111122,1111122,1111122' 
LUMCON,ioos:station:LUMCON:101:1,2019-03-01T09:45:00Z,29.2533,-90.6633,1.0,1.1,32.0,1.2,'1111122,1111122,1111122' 
LUMCON,ioos:station:LUMCON:101:1,2019-03-01T10:00:00Z,29.2533,-90.6633,1.0,2.1,29.0,2.4,'1111122,1111122,1111122' 
LUMCON,ioos:station:LUMCON:101:1,2019-03-01T10:15:00Z,29.2533,-90.6633,1.0,1.1,41.0,1.1,'1111122,1111122,1111122' 
LUMCON,ioos:station:LUMCON:101:1,2019-03-01T10:30:00Z,29.2533,-90.6633,1.0,2.1,75.0,2.2,'1111122,1111122,1111122' 
LUMCON,ioos:station:LUMCON:101:1,2019-03-01T10:45:00Z,29.2533,-90.6633,1.0,1.9,118.0,2.2,'1111122,1111122,1111122' 
LUMCON,ioos:station:LUMCON:101:1,2019-03-01T11:00:00Z,29.2533,-90.6633,1.0,1.8,105.0,2.1,'1111122,1111122,1111122' 
LUMCON,ioos:station:LUMCON:101:1,2019-03-01T11:15:00Z,29.2533,-90.6633,1.0,2.0,117.0,2.1,'1111122,1111122,1111122' 
LUMCON,ioos:station:LUMCON:101:1,2019-03-01T11:30:00Z,29.2533,-90.6633,1.0,2.9,118.0,3.3,'1111122,1111122,1111122' 
LUMCON,ioos:station:LUMCON:101:1,2019-03-01T11:45:00Z,29.2533,-90.6633,1.0,3.4,161.0,3.8,'1111122,1111122,1111122' 
LUMCON,ioos:station:LUMCON:101:1,2019-03-01T12:00:00Z,29.2533,-90.6633,1.0,2.2,160.0,2.4,'1111122,1111122,1111122' 
LUMCON,ioos:station:LUMCON:101:1,2019-03-01T12:15:00Z,29.2533,-90.6633,1.0,1.3,183.0,1.4,'1111122,1111122,1111122' 
LUMCON,ioos:station:LUMCON:101:1,2019-03-01T12:30:00Z,29.2533,-90.6633,1.0,1.7,154.0,1.8,'1111122,1111122,1111122' 
LUMCON,ioos:station:LUMCON:101:1,2019-03-01T12:45:00Z,29.2533,-90.6633,1.0,2.1,176.0,2.3,'1111122,1111122,1111122' 
LUMCON,ioos:station:LUMCON:101:1,2019-03-01T13:00:00Z,29.2533,-90.6633,1.0,1.5,234.0,1.6,'1111122,1111122,1111122' 
LUMCON,ioos:station:LUMCON:101:1,2019-03-01T13:15:00Z,29.2533,-90.6633,1.0,2.6,237.0,2.8,'1111122,1111122,1111122' 
LUMCON,ioos:station:LUMCON:101:1,2019-03-01T13:30:00Z,29.2533,-90.6633,1.0,2.4,226.0,2.5,'1111122,1111122,1111122' 
LUMCON,ioos:station:LUMCON:101:1,2019-03-01T13:45:00Z,29.2533,-90.6633,1.0,1.6,169.0,1.7,'1111122,1111122,1111122' 
LUMCON,ioos:station:LUMCON:101:1,2019-03-01T14:00:00Z,29.2533,-90.6633,1.0,2.1,168.0,2.3,'1111122,1111122,1111122' 
LUMCON,ioos:station:LUMCON:101:1,2019-03-01T14:15:00Z,29.2533,-90.6633,1.0,2.3,160.0,2.4,'1111122,1111122,1111122' 
LUMCON,ioos:station:LUMCON:101:1,2019-03-01T14:30:00Z,29.2533,-90.6633,1.0,1.2,162.0,1.6,'1111122,1111122,1111122' 
LUMCON,ioos:station:LUMCON:101:1,2019-03-01T14:45:00Z,29.2533,-90.6633,1.0,1.2,207.0,1.3,'1111122,1111122,1111122' 
LUMCON,ioos:station:LUMCON:101:1,2019-03-04T17:45:00Z,29.2533,-90.6633,1.0,5.7,348.0,7.7,'1111122,1111122,1111122' 
LUMCON,ioos:station:LUMCON:101:1,2019-03-04T18:00:00Z,29.2533,-90.6633,1.0,5.4,327.0,5.7,'1111122,1111122,1111122' 
LUMCON,ioos:station:LUMCON:101:1,2019-03-04T18:15:00Z,29.2533,-90.6633,1.0,6.6,326.0,6.9,'1111122,1111122,1111122' 
LUMCON,ioos:station:LUMCON:101:1,2019-03-04T18:30:00Z,29.2533,-90.6633,1.0,8.3,339.0,8.7,'1111122,1111122,1111122' 
LUMCON,ioos:station:LUMCON:101:1,2019-03-04T18:45:00Z,29.2533,-90.6633,1.0,4.9,353.0,5.5,'1111122,1111122,1111122' 
LUMCON,ioos:station:LUMCON:101:1,2019-03-04T19:00:00Z,29.2533,-90.6633,1.0,5.3,11.0,5.6,'1111122,1111122,1111122' 
LUMCON,ioos:station:LUMCON:101:1,2019-03-04T19:15:00Z,29.2533,-90.6633,1.0,5.3,345.0,6.1,'1111122,1111122,1111122' 
LUMCON,ioos:station:LUMCON:101:1,2019-03-04T19:30:00Z,29.2533,-90.6633,1.0,4.7,1.0,5.1,'1111122,1111122,1111122' 
LUMCON,ioos:station:LUMCON:101:1,2019-03-04T19:45:00Z,29.2533,-90.6633,1.0,6.1,2.0,6.7,'1111122,1111122,1111122' 
LUMCON,ioos:station:LUMCON:101:1,2019-03-04T20:00:00Z,29.2533,-90.6633,1.0,3.5,20.0,4.0,'1111122,1111122,1111122' 
LUMCON,ioos:station:LUMCON:101:1,2019-03-04T21:30:00Z,29.2533,-90.6633,1.0,5.0,338.0,5.4,'1111122,1111122,1111122' 
LUMCON,ioos:station:LUMCON:101:1,2019-03-04T21:45:00Z,29.2533,-90.6633,1.0,3.9,321.0,4.0,'1111122,1111122,1111122' 
LUMCON,ioos:station:LUMCON:101:1,2019-03-04T22:00:00Z,29.2533,-90.6633,1.0,3.4,343.0,3.6,'1111122,1111122,1111122' 
LUMCON,ioos:station:LUMCON:101:1,2019-03-04T22:15:00Z,29.2533,-90.6633,1.0,4.6,342.0,4.8,'1111122,1111122,1111122' 
LUMCON,ioos:station:LUMCON:101:1,2019-03-04T22:30:00Z,29.2533,-90.6633,1.0,4.5,333.0,4.9,'1111122,1111122,1111122' 
LUMCON,ioos:station:LUMCON:101:1,2019-03-04T22:45:00Z,29.2533,-90.6633,1.0,6.2,332.0,6.3,'1111122,1111122,1111122' 
LUMCON,ioos:station:LUMCON:101:1,2019-03-04T23:00:00Z,29.2533,-90.6633,1.0,5.9,325.0,6.3,'1111122,1111122,1111122' 
LUMCON,ioos:station:LUMCON:101:1,2019-03-04T23:15:00Z,29.2533,-90.6633,1.0,6.3,324.0,6.5,'1111122,1111122,1111122' 
LUMCON,ioos:station:LUMCON:101:1,2019-03-04T23:30:00Z,29.2533,-90.6633,1.0,4.8,326.0,4.9,'1111122,1111122,1111122' 
LUMCON,ioos:station:LUMCON:101:1,2019-03-04T23:45:00Z,29.2533,-90.6633,1.0,3.7,328.0,4.3,'1111122,1111122,1111122' 
LUMCON,ioos:station:LUMCON:101:1,2019-03-05T00:00:00Z,29.2533,-90.6633,1.0,6.0,339.0,6.2,'1111122,1111122,1111122' 
LUMCON,ioos:station:LUMCON:101:1,2019-03-05T00:15:00Z,29.2533,-90.6633,1.0,3.7,331.0,4.1,'1111122,1111122,1111122' 
LUMCON,ioos:station:LUMCON:101:1,2019-03-05T00:30:00Z,29.2533,-90.6633,1.0,3.8,334.0,4.1,'1111122,1111122,1111122' 
LUMCON,ioos:station:LUMCON:101:1,2019-03-05T00:45:00Z,29.2533,-90.6633,1.0,4.1,345.0,4.4,'1111122,1111122,1111122' 
LUMCON,ioos:station:LUMCON:101:1,2019-03-05T01:00:00Z,29.2533,-90.6633,1.0,4.3,343.0,4.6,'1111122,1111122,1111122' 
LUMCON,ioos:station:LUMCON:101:1,2019-03-05T01:15:00Z,29.2533,-90.6633,1.0,5.0,333.0,5.2,'1111122,1111122,1111122' 
LUMCON,ioos:station:LUMCON:101:1,2019-03-05T01:30:00Z,29.2533,-90.6633,1.0,4.0,343.0,4.3,'1111122,1111122,1111122' 
LUMCON,ioos:station:LUMCON:101:1,2019-03-05T01:45:00Z,29.2533,-90.6633,1.0,5.6,344.0,6.3,'1111122,1111122,1111122' 
LUMCON,ioos:station:LUMCON:101:1,2019-03-05T02:00:00Z,29.2533,-90.6633,1.0,4.8,341.0,5.9,'1111122,1111122,1111122' 
LUMCON,ioos:station:LUMCON:101:1,2019-03-05T02:15:00Z,29.2533,-90.6633,1.0,5.0,345.0,5.5,'1111122,1111122,1111122' 
LUMCON,ioos:station:LUMCON:101:1,2019-03-05T02:30:00Z,29.2533,-90.6633,1.0,5.0,351.0,5.2,'1111122,1111122,1111122' 
LUMCON,ioos:station:LUMCON:101:1,2019-03-05T02:45:00Z,29.2533,-90.6633,1.0,6.3,341.0,6.7,'1111122,1111122,1111122' 
LUMCON,ioos:station:LUMCON:101:1,2019-03-05T03:00:00Z,29.2533,-90.6633,1.0,5.3,356.0,5.7,'1111122,1111122,1111122' 
LUMCON,ioos:station:LUMCON:101:1,2019-03-05T03:15:00Z,29.2533,-90.6633,1.0,6.6,298.0,7.2,'1111122,1111122,1111122' 
LUMCON,ioos:station:LUMCON:101:1,2019-03-05T03:30:00Z,29.2533,-90.6633,1.0,6.7,303.0,7.3,'1111122,1111122,1111122' 
LUMCON,ioos:station:LUMCON:101:1,2019-03-05T03:45:00Z,29.2533,-90.6633,1.0,5.1,313.0,5.8,'1111122,1111122,1111122' 
LUMCON,ioos:station:LUMCON:101:1,2019-03-05T04:00:00Z,29.2533,-90.6633,1.0,9.0,319.0,9.6,'1111122,1111122,1111122' 
LUMCON,ioos:station:LUMCON:101:1,2019-03-05T04:15:00Z,29.2533,-90.6633,1.0,5.2,332.0,5.8,'1111122,1111122,1111122' 
LUMCON,ioos:station:LUMCON:101:1,2019-03-05T04:30:00Z,29.2533,-90.6633,1.0,7.7,332.0,8.8,'1111122,1111122,1111122' 
LUMCON,ioos:station:LUMCON:101:1,2019-03-05T04:45:00Z,29.2533,-90.6633,1.0,5.3,340.0,6.3,'1111122,1111122,1111122' 
LUMCON,ioos:station:LUMCON:101:1,2019-03-05T05:00:00Z,29.2533,-90.6633,1.0,8.7,339.0,9.3,'1111122,1111122,1111122' 
LUMCON,ioos:station:LUMCON:101:1,2019-03-05T05:15:00Z,29.2533,-90.6633,1.0,9.0,328.0,9.3,'1111122,1111122,1111122' 
LUMCON,ioos:station:LUMCON:101:1,2019-03-05T05:30:00Z,29.2533,-90.6633,1.0,7.0,344.0,7.4,'1111122,1111122,1111122' 
LUMCON,ioos:station:LUMCON:101:1,2019-03-05T05:45:00Z,29.2533,-90.6633,1.0,6.9,323.0,8.0,'1111122,1111122,1111122' 
LUMCON,ioos:station:LUMCON:101:1,2019-03-05T06:00:00Z,29.2533,-90.6633,1.0,6.3,333.0,6.7,'1111122,1111122,1111122' 
LUMCON,ioos:station:LUMCON:101:1,2019-03-06T10:45:00Z,29.2533,-90.6633,1.0,4.4,353.0,5.0,'1111122,1111122,1111122' 
LUMCON,ioos:station:LUMCON:101:1,2019-03-06T11:00:00Z,29.2533,-90.6633,1.0,4.2,348.0,4.5,'1111122,1111122,1111122' 
LUMCON,ioos:station:LUMCON:101:1,2019-03-06T11:15:00Z,29.2533,-90.6633,1.0,5.5,358.0,6.5,'1111122,1111122,1111122' 
LUMCON,ioos:station:LUMCON:101:1,2019-03-06T11:30:00Z,29.2533,-90.6633,1.0,7.8,340.0,8.4,'1111122,1111122,1111122' 
LUMCON,ioos:station:LUMCON:101:1,2019-03-06T11:45:00Z,29.2533,-90.6633,1.0,4.7,1.0,5.1,'1111122,1111122,1111122' 
LUMCON,ioos:station:LUMCON:101:1,2019-03-06T12:00:00Z,29.2533,-90.6633,1.0,7.2,7.0,8.1,'1111122,1111122,1111122' 
LUMCON,ioos:station:LUMCON:101:1,2019-03-06T12:15:00Z,29.2533,-90.6633,1.0,6.5,9.0,6.9,'1111122,1111122,1111122' 
LUMCON,ioos:station:LUMCON:101:1,2019-03-06T12:30:00Z,29.2533,-90.6633,1.0,5.0,356.0,5.5,'1111122,1111122,1111122' 
LUMCON,ioos:station:LUMCON:101:1,2019-03-06T12:45:00Z,29.2533,-90.6633,1.0,5.5,11.0,5.7,'1111122,1111122,1111122' 
LUMCON,ioos:station:LUMCON:101:1,2019-03-06T13:00:00Z,29.2533,-90.6633,1.0,9.5,6.0,10.6,'1111122,1111122,1111122' 
LUMCON,ioos:station:LUMCON:101:1,2019-03-06T13:15:00Z,29.2533,-90.6633,1.0,9.0,6.0,9.4,'1111122,1111122,1111122' 
LUMCON,ioos:station:LUMCON:101:1,2019-03-06T13:30:00Z,29.2533,-90.6633,1.0,6.9,19.0,8.3,'1111122,1111122,1111122' 
LUMCON,ioos:station:LUMCON:101:1,2019-03-06T13:45:00Z,29.2533,-90.6633,1.0,10.4,11.0,10.6,'1111122,1111122,1111122' 
LUMCON,ioos:station:LUMCON:101:1,2019-03-06T14:00:00Z,29.2533,-90.6633,1.0,7.4,3.0,7.9,'1111122,1111122,1111122' 
LUMCON,ioos:station:LUMCON:101:1,2019-03-06T14:15:00Z,29.2533,-90.6633,1.0,10.4,21.0,11.5,'1111122,1111122,1111122' 
LUMCON,ioos:station:LUMCON:101:1,2019-03-06T14:30:00Z,29.2533,-90.6633,1.0,9.9,22.0,11.3,'1111122,1111122,1111122' 
LUMCON,ioos:station:LUMCON:101:1,2019-03-06T14:45:00Z,29.2533,-90.6633,1.0,10.4,12.0,11.1,'1111122,1111122,1111122' 
LUMCON,ioos:station:LUMCON:101:1,2019-03-06T15:00:00Z,29.2533,-90.6633,1.0,8.7,22.0,10.2,'1111122,1111122,1111122' 
LUMCON,ioos:station:LUMCON:101:1,2019-03-06T15:15:00Z,29.2533,-90.6633,1.0,8.6,4.0,9.3,'1111122,1111122,1111122' 
LUMCON,ioos:station:LUMCON:101:1,2019-03-06T15:30:00Z,29.2533,-90.6633,1.0,9.3,11.0,10.2,'1111122,1111122,1111122' 
LUMCON,ioos:station:LUMCON:101:1,2019-03-06T15:45:00Z,29.2533,-90.6633,1.0,8.1,25.0,8.4,'1111122,1111122,1111122' 
LUMCON,ioos:station:LUMCON:101:1,2019-03-06T16:00:00Z,29.2533,-90.6633,1.0,7.2,8.0,7.6,'1111122,1111122,1111122' 
LUMCON,ioos:station:LUMCON:101:1,2019-03-06T16:15:00Z,29.2533,-90.6633,1.0,5.1,41.0,5.7,'1111122,1111122,1111122' 
LUMCON,ioos:station:LUMCON:101:1,2019-03-06T16:30:00Z,29.2533,-90.6633,1.0,10.6,19.0,11.0,'1111122,1111122,1111122' 
LUMCON,ioos:station:LUMCON:101:1,2019-03-06T16:45:00Z,29.2533,-90.6633,1.0,6.3,17.0,7.5,'1111122,1111122,1111122' 
LUMCON,ioos:station:LUMCON:101:1,2019-03-06T17:00:00Z,29.2533,-90.6633,1.0,5.0,35.0,6.1,'1111122,1111122,1111122' 
LUMCON,ioos:station:LUMCON:101:1,2019-03-06T17:15:00Z,29.2533,-90.6633,1.0,6.0,10.0,6.6,'1111122,1111122,1111122' 
LUMCON,ioos:station:LUMCON:101:1,2019-03-06T17:30:00Z,29.2533,-90.6633,1.0,9.2,18.0,9.7,'1111122,1111122,1111122' 
LUMCON,ioos:station:LUMCON:101:1,2019-03-06T17:45:00Z,29.2533,-90.6633,1.0,7.2,32.0,8.0,'1111122,1111122,1111122' 
LUMCON,ioos:station:LUMCON:101:1,2019-03-06T18:00:00Z,29.2533,-90.6633,1.0,4.8,45.0,5.4,'1111122,1111122,1111122' 
LUMCON,ioos:station:LUMCON:101:1,2019-03-06T18:15:00Z,29.2533,-90.6633,1.0,6.2,28.0,6.5,'1111122,1111122,1111122' 
LUMCON,ioos:station:LUMCON:101:1,2019-03-06T18:30:00Z,29.2533,-90.6633,1.0,5.0,42.0,6.1,'1111122,1111122,1111122' 
LUMCON,ioos:station:LUMCON:101:1,2019-03-06T18:45:00Z,29.2533,-90.6633,1.0,5.1,17.0,5.3,'1111122,1111122,1111122' 
LUMCON,ioos:station:LUMCON:101:1,2019-03-06T19:00:00Z,29.2533,-90.6633,1.0,4.5,61.0,5.8,'1111122,1111122,1111122' 
LUMCON,ioos:station:LUMCON:101:1,2019-03-06T19:15:00Z,29.2533,-90.6633,1.0,4.4,25.0,5.1,'1111122,1111122,1111122' 
LUMCON,ioos:station:LUMCON:101:1,2019-03-06T19:30:00Z,29.2533,-90.6633,1.0,5.6,42.0,6.3,'1111122,1111122,1111122' 
LUMCON,ioos:station:LUMCON:101:1,2019-03-06T19:45:00Z,29.2533,-90.6633,1.0,4.7,65.0,5.2,'1111122,1111122,1111122' 
LUMCON,ioos:station:LUMCON:101:1,2019-03-06T20:00:00Z,29.2533,-90.6633,1.0,4.2,67.0,4.7,'1111122,1111122,1111122' 
LUMCON,ioos:station:LUMCON:101:1,2019-03-06T20:15:00Z,29.2533,-90.6633,1.0,2.2,62.0,3.7,'1111122,1111122,1111122' 
LUMCON,ioos:station:LUMCON:101:1,2019-03-06T20:30:00Z,29.2533,-90.6633,1.0,3.1,43.0,3.3,'1111122,1111122,1111122' 
LUMCON,ioos:station:LUMCON:101:1,2019-03-06T20:45:00Z,29.2533,-90.6633,1.0,6.9,79.0,7.3,'1111122,1111122,1111122' 
LUMCON,ioos:station:LUMCON:101:1,2019-03-06T21:00:00Z,29.2533,-90.6633,1.0,4.5,62.0,5.0,'1111122,1111122,1111122' 
LUMCON,ioos:station:LUMCON:101:1,2019-03-06T21:15:00Z,29.2533,-90.6633,1.0,2.7,95.0,3.1,'1111122,1111122,1111122' 
LUMCON,ioos:station:LUMCON:101:1,2019-03-06T21:30:00Z,29.2533,-90.6633,1.0,4.2,44.0,4.3,'1111122,1111122,1111122' 
LUMCON,ioos:station:LUMCON:101:1,2019-03-06T21:45:00Z,29.2533,-90.6633,1.0,3.7,83.0,4.0,'1111122,1111122,1111122' 
LUMCON,ioos:station:LUMCON:101:1,2019-03-06T22:00:00Z,29.2533,-90.6633,1.0,4.9,62.0,5.4,'1111122,1111122,1111122' 
LUMCON,ioos:station:LUMCON:101:1,2019-03-06T22:15:00Z,29.2533,-90.6633,1.0,4.2,92.0,4.6,'1111122,1111122,1111122' 
LUMCON,ioos:station:LUMCON:101:1,2019-03-06T22:30:00Z,29.2533,-90.6633,1.0,3.2,51.0,3.4,'1111122,1111122,1111122' 
LUMCON,ioos:station:LUMCON:101:1,2019-03-06T22:45:00Z,29.2533,-90.6633,1.0,3.9,66.0,4.8,'1111122,1111122,1111122' 
LUMCON,ioos:station:LUMCON:101:1,2019-03-06T23:00:00Z,29.2533,-90.6633,1.0,5.3,56.0,5.8,'1111122,1111122,1111122' 
LUMCON,ioos:station:LUMCON:101:1,2019-03-06T23:15:00Z,29.2533,-90.6633,1.0,6.4,86.0,6.7,'1111122,1111122,1111122' 
LUMCON,ioos:station:LUMCON:101:1,2019-03-06T23:30:00Z,29.2533,-90.6633,1.0,4.1,96.0,4.6,'1111122,1111122,1111122' 
LUMCON,ioos:station:LUMCON:101:1,2019-03-06T23:45:00Z,29.2533,-90.6633,1.0,4.2,69.0,4.7,'1111122,1111122,1111122' 
LUMCON,ioos:station:LUMCON:101:1,2019-03-07T00:00:00Z,29.2533,-90.6633,1.0,4.6,91.0,4.9,'1111122,1111122,1111122' 
LUMCON,ioos:station:LUMCON:101:1,2019-03-07T00:15:00Z,29.2533,-90.6633,1.0,3.8,76.0,4.0,'1111122,1111122,1111122' 
LUMCON,ioos:station:LUMCON:101:1,2019-03-07T00:30:00Z,29.2533,-90.6633,1.0,5.1,86.0,5.3,'1111122,1111122,1111122' 
LUMCON,ioos:station:LUMCON:101:1,2019-03-07T00:45:00Z,29.2533,-90.6633,1.0,3.9,72.0,4.0,'1111122,1111122,1111122' 
LUMCON,ioos:station:LUMCON:101:1,2019-03-07T01:00:00Z,29.2533,-90.6633,1.0,4.0,64.0,4.5,'1111122,1111122,1111122' 
LUMCON,ioos:station:LUMCON:101:1,2019-03-07T01:15:00Z,29.2533,-90.6633,1.0,4.8,70.0,5.1,'1111122,1111122,1111122' 
LUMCON,ioos:station:LUMCON:101:1,2019-03-07T01:30:00Z,29.2533,-90.6633,1.0,3.6,82.0,4.0,'1111122,1111122,1111122' 
LUMCON,ioos:station:LUMCON:101:1,2019-03-07T01:45:00Z,29.2533,-90.6633,1.0,3.4,68.0,3.9,'1111122,1111122,1111122' 
LUMCON,ioos:station:LUMCON:101:1,2019-03-07T02:00:00Z,29.2533,-90.6633,1.0,2.0,82.0,2.4,'1111122,1111122,1111122' 
LUMCON,ioos:station:LUMCON:101:1,2019-03-07T02:15:00Z,29.2533,-90.6633,1.0,3.5,88.0,4.0,'1111122,1111122,1111122' 
LUMCON,ioos:station:LUMCON:101:1,2019-03-07T02:30:00Z,29.2533,-90.6633,1.0,4.1,95.0,4.2,'1111122,1111122,1111122' 
LUMCON,ioos:station:LUMCON:101:1,2019-03-07T02:45:00Z,29.2533,-90.6633,1.0,2.9,82.0,3.3,'1111122,1111122,1111122' 
LUMCON,ioos:station:LUMCON:101:1,2019-03-07T03:00:00Z,29.2533,-90.6633,1.0,2.0,100.0,2.2,'1111122,1111122,1111122' 
LUMCON,ioos:station:LUMCON:101:1,2019-03-07T03:15:00Z,29.2533,-90.6633,1.0,3.2,91.0,3.4,'1111122,1111122,1111122' 
LUMCON,ioos:station:LUMCON:101:1,2019-03-07T03:30:00Z,29.2533,-90.6633,1.0,3.4,91.0,3.6,'1111122,1111122,1111122' 
LUMCON,ioos:station:LUMCON:101:1,2019-03-07T03:45:00Z,29.2533,-90.6633,1.0,3.3,95.0,3.4,'1111122,1111122,1111122' 
LUMCON,ioos:station:LUMCON:101:1,2019-03-07T04:00:00Z,29.2533,-90.6633,1.0,3.2,105.0,3.3,'1111122,1111122,1111122' 
LUMCON,ioos:station:LUMCON:101:1,2019-03-07T04:15:00Z,29.2533,-90.6633,1.0,3.3,95.0,3.6,'1111122,1111122,1111122' 
LUMCON,ioos:station:LUMCON:101:1,2019-03-07T04:30:00Z,29.2533,-90.6633,1.0,3.6,99.0,4.0,'1111122,1111122,1111122' 
LUMCON,ioos:station:LUMCON:101:1,2019-03-07T04:45:00Z,29.2533,-90.6633,1.0,2.9,96.0,3.1,'1111122,1111122,1111122' 
LUMCON,ioos:station:LUMCON:101:1,2019-03-07T05:00:00Z,29.2533,-90.6633,1.0,2.5,82.0,2.8,'1111122,1111122,1111122' 
LUMCON,ioos:station:LUMCON:101:1,2019-03-07T05:15:00Z,29.2533,-90.6633,1.0,2.6,90.0,2.9,'1111122,1111122,1111122' 
LUMCON,ioos:station:LUMCON:101:1,2019-03-07T05:30:00Z,29.2533,-90.6633,1.0,1.9,93.0,2.0,'1111122,1111122,1111122' 
LUMCON,ioos:station:LUMCON:101:1,2019-03-07T05:45:00Z,29.2533,-90.6633,1.0,2.8,98.0,3.0,'1111122,1111122,1111122' 
LUMCON,ioos:station:LUMCON:101:1,2019-03-07T06:00:00Z,29.2533,-90.6633,1.0,1.9,98.0,2.0,'1111122,1111122,1111122' 
LUMCON,ioos:station:LUMCON:101:1,2019-03-07T06:15:00Z,29.2533,-90.6633,1.0,2.8,99.0,3.0,'1111122,1111122,1111122' 
LUMCON,ioos:station:LUMCON:101:1,2019-03-07T06:30:00Z,29.2533,-90.6633,1.0,3.6,92.0,3.8,'1111122,1111122,1111122' 
LUMCON,ioos:station:LUMCON:101:1,2019-03-07T06:45:00Z,29.2533,-90.6633,1.0,3.6,106.0,3.8,'1111122,1111122,1111122' 
LUMCON,ioos:station:LUMCON:101:1,2019-03-07T07:00:00Z,29.2533,-90.6633,1.0,3.1,87.0,3.6,'1111122,1111122,1111122' 
LUMCON,ioos:station:LUMCON:101:1,2019-03-07T07:15:00Z,29.2533,-90.6633,1.0,3.1,87.0,3.3,'1111122,1111122,1111122' 
LUMCON,ioos:station:LUMCON:101:1,2019-03-07T07:30:00Z,29.2533,-90.6633,1.0,2.6,88.0,2.7,'1111122,1111122,1111122' 
LUMCON,ioos:station:LUMCON:101:1,2019-03-07T07:45:00Z,29.2533,-90.6633,1.0,4.0,80.0,4.2,'1111122,1111122,1111122' 
LUMCON,ioos:station:LUMCON:101:1,2019-03-07T08:00:00Z,29.2533,-90.6633,1.0,2.5,82.0,2.8,'1111122,1111122,1111122' 
LUMCON,ioos:station:LUMCON:101:1,2019-03-07T08:15:00Z,29.2533,-90.6633,1.0,2.7,74.0,3.1,'1111122,1111122,1111122' 
LUMCON,ioos:station:LUMCON:101:1,2019-03-07T08:30:00Z,29.2533,-90.6633,1.0,2.8,80.0,2.9,'1111122,1111122,1111122' 
LUMCON,ioos:station:LUMCON:101:1,2019-03-07T08:45:00Z,29.2533,-90.6633,1.0,3.0,67.0,3.3,'1111122,1111122,1111122' 
LUMCON,ioos:station:LUMCON:101:1,2019-03-07T09:00:00Z,29.2533,-90.6633,1.0,1.4,38.0,1.6,'1111122,1111122,1111122' 
LUMCON,ioos:station:LUMCON:101:1,2019-03-07T09:15:00Z,29.2533,-90.6633,1.0,1.9,56.0,2.1,'1111122,1111122,1111122' 
LUMCON,ioos:station:LUMCON:101:1,2019-03-07T09:30:00Z,29.2533,-90.6633,1.0,2.2,30.0,2.4,'1111122,1111122,1111122' 
LUMCON,ioos:station:LUMCON:101:1,2019-03-07T09:45:00Z,29.2533,-90.6633,1.0,2.8,3.0,2.9,'1111122,1111122,1111122' 
LUMCON,ioos:station:LUMCON:101:1,2019-03-07T10:00:00Z,29.2533,-90.6633,1.0,2.9,14.0,2.9,'1111122,1111122,1111122' 
LUMCON,ioos:station:LUMCON:101:1,2019-03-07T10:15:00Z,29.2533,-90.6633,1.0,3.2,14.0,3.4,'1111122,1111122,1111122' 
LUMCON,ioos:station:LUMCON:101:1,2019-03-07T10:30:00Z,29.2533,-90.6633,1.0,3.1,11.0,3.4,'1111122,1111122,1111122' 
LUMCON,ioos:station:LUMCON:101:1,2019-03-07T10:45:00Z,29.2533,-90.6633,1.0,3.9,24.0,4.1,'1111122,1111122,1111122' 
LUMCON,ioos:station:LUMCON:101:1,2019-03-07T11:00:00Z,29.2533,-90.6633,1.0,2.7,21.0,2.9,'1111122,1111122,1111122' 
LUMCON,ioos:station:LUMCON:101:1,2019-03-07T11:15:00Z,29.2533,-90.6633,1.0,3.4,23.0,3.7,'1111122,1111122,1111122' 
LUMCON,ioos:station:LUMCON:101:1,2019-03-07T11:30:00Z,29.2533,-90.6633,1.0,2.8,23.0,3.2,'1111122,1111122,1111122' 
LUMCON,ioos:station:LUMCON:101:1,2019-03-07T11:45:00Z,29.2533,-90.6633,1.0,4.3,23.0,4.4,'1111122,1111122,1111122' 
LUMCON,ioos:station:LUMCON:101:1,2019-03-07T12:00:00Z,29.2533,-90.6633,1.0,4.0,24.0,4.4,'1111122,1111122,1111122' 
LUMCON,ioos:station:LUMCON:101:1,2019-03-07T12:15:00Z,29.2533,-90.6633,1.0,2.8,16.0,3.2,'1111122,1111122,1111122' 
LUMCON,ioos:station:LUMCON:101:1,2019-03-07T12:30:00Z,29.2533,-90.6633,1.0,4.6,27.0,5.0,'1111122,1111122,1111122' 